Theta_e
312 308 308 307 307 306 306 306 308 309 310 311 312 314 315 314 314 314 315 317 316 315 315 315 313 314 314 313 314 314 314 315 314 314 316 317 318 320 322 322 324 324 322 320 318 315 317 317 316 315 315 313 311 309 307 306 303 299 297 297 295 294 294 296 296 294 291 290 291 291 290 291 292 291 290 291 291 292 292 292 293 293 293 293 293
309 306 304 305 305 306 305 306 306 307 308 310 311 313 314 314 314 314 315 316 316 316 315 315 316 315 315 314 314 313 312 313 313 311 312 312 313 316 318 319 323 322 320 321 317 315 313 313 314 314 313 312 311 310 308 304 301 298 296 294 296 293 293 296 295 294 292 290 288 288 289 290 290 289 289 289 291 291 292 292 292 292 292 292 293
308 307 306 304 306 305 304 305 306 307 308 309 311 313 313 313 313 314 315 315 316 315 315 315 316 316 316 315 312 309 308 308 313 310 307 308 308 311 314 316 318 317 318 317 315 315 313 312 311 312 313 312 310 307 304 301 298 296 296 295 294 294 294 296 296 299 294 293 293 290 287 287 288 287 288 288 289 290 291 291 292 292 292 292 292
308 308 306 304 304 304 304 304 305 306 308 309 310 311 312 313 313 314 314 315 315 315 315 316 317 316 311 310 309 309 307 304 303 302 302 304 306 306 309 312 314 315 314 314 314 313 312 312 311 312 313 312 309 305 302 300 298 296 296 296 295 293 294 295 299 299 297 293 291 293 290 291 286 286 286 287 288 290 290 290 291 291 291 292 292
307 308 308 305 303 303 303 304 305 305 307 308 310 311 311 312 313 314 314 314 314 314 314 313 309 308 304 303 303 304 304 305 303 302 303 303 303 303 307 309 311 311 310 311 311 311 311 310 310 310 309 309 309 306 303 299 297 296 297 296 295 295 294 295 296 298 299 301 297 291 290 290 292 290 286 285 287 287 289 289 290 290 290 291 290
306 306 307 307 304 304 304 304 304 305 305 308 310 311 312 312 313 314 313 313 313 313 314 310 310 308 304 303 303 305 304 303 303 304 302 302 303 303 302 304 307 308 309 310 309 309 310 310 310 309 309 309 309 306 303 300 298 298 298 298 297 299 297 295 295 296 299 298 299 298 299 296 294 288 288 284 287 290 288 289 289 290 290 290 290
307 306 305 305 305 304 304 303 304 304 305 308 309 310 311 312 312 313 313 313 313 312 310 309 308 308 307 308 309 308 307 306 309 310 306 306 304 300 301 301 304 305 306 308 307 306 307 308 309 309 309 308 308 306 302 300 299 300 300 300 300 300 300 296 296 295 294 295 297 297 296 294 296 289 288 288 283 286 287 286 287 289 289 289 289
307 307 306 305 305 304 303 304 304 304 306 307 308 310 310 311 312 312 313 312 312 312 310 309 309 307 308 310 311 311 312 311 309 309 308 305 301 299 299 300 301 303 304 303 303 305 305 304 306 306 305 307 307 305 303 301 301 302 301 302 303 302 301 300 298 295 293 295 294 294 293 295 297 295 295 291 289 285 284 287 287 288 288 288 289
305 306 306 305 304 304 304 304 304 304 305 306 307 308 310 311 311 312 312 311 311 310 309 308 308 309 309 311 312 313 314 312 309 307 304 301 301 300 300 300 300 301 301 301 300 301 300 301 302 303 302 303 304 306 305 302 300 300 300 302 303 302 302 303 299 296 297 296 293 293 294 293 293 294 295 294 290 288 286 284 284 286 287 287 287
304 303 304 305 304 304 304 303 303 303 305 306 307 308 309 310 310 310 311 311 311 309 309 308 308 308 310 311 312 311 309 305 305 302 302 302 300 298 297 297 298 297 298 298 299 297 297 299 299 299 301 302 301 304 303 301 300 300 301 303 303 302 303 303 300 298 299 297 296 295 292 291 291 290 290 290 290 292 288 285 285 283 282 285 287
304 304 303 303 302 300 300 300 301 302 304 305 306 307 309 309 310 309 310 311 310 309 308 308 308 308 309 310 310 308 304 303 300 300 300 299 298 298 296 298 298 296 296 296 296 294 294 295 296 297 299 299 300 302 301 301 301 300 301 303 303 303 302 302 300 300 299 296 296 294 293 292 291 290 289 290 289 287 288 287 287 285 285 284 286
303 303 305 303 301 300 299 300 300 301 302 303 305 306 307 308 309 308 309 310 309 308 308 308 308 309 309 309 308 307 305 303 301 300 298 298 299 298 298 298 297 296 295 294 292 291 292 292 293 295 296 297 299 300 301 302 302 302 301 302 302 303 302 300 300 298 297 296 295 295 294 294 294 293 293 292 291 290 289 288 286 287 286 287 288
304 305 305 305 304 303 301 300 300 301 301 302 304 306 306 307 308 308 308 309 309 308 306 307 308 308 308 309 310 308 305 302 304 302 300 299 299 298 297 297 295 295 295 294 292 291 290 290 291 293 295 296 299 300 301 302 302 301 301 301 301 300 299 299 297 297 295 294 293 293 294 294 293 293 294 293 293 292 290 287 287 287 284 285 286
304 304 304 305 305 304 302 301 301 301 301 302 304 305 306 306 307 307 308 309 308 308 307 306 306 307 308 309 310 310 304 304 306 305 299 299 300 298 296 297 296 296 295 295 293 290 290 290 291 292 294 295 297 300 300 300 300 300 300 299 299 298 297 297 297 296 295 295 294 292 292 292 292 292 292 292 291 290 288 287 286 285 286 286 286
305 304 304 304 304 302 302 301 301 301 301 302 304 304 305 305 306 306 307 307 307 307 307 306 306 306 306 308 309 307 304 303 304 303 299 298 299 299 298 298 298 297 296 296 294 290 289 290 290 291 293 294 296 298 299 298 299 298 298 298 297 296 296 296 295 294 294 293 293 292 292 292 291 291 291 291 291 290 289 288 286 283 282 283 282
305 304 304 303 302 301 300 300 300 301 301 302 303 304 305 305 306 306 307 307 307 306 306 306 306 307 307 307 307 303 302 302 302 301 301 301 301 302 301 299 298 298 297 295 292 290 289 289 289 290 291 293 295 296 295 296 296 296 295 295 294 294 294 294 293 293 293 293 293 292 291 290 290 290 291 290 290 290 289 289 288 286 284 282 283
304 303 303 303 301 299 299 299 300 300 301 301 303 304 305 305 306 306 306 307 307 306 306 306 306 306 306 306 306 302 301 301 300 300 300 301 303 302 301 300 299 297 296 294 291 290 289 288 288 289 289 291 293 293 293 294 294 294 294 293 292 291 292 292 291 291 292 291 291 291 290 289 288 289 288 289 288 288 289 288 287 286 286 283 282
304 304 303 302 301 300 299 299 300 300 300 301 302 304 305 306 306 306 306 306 306 306 305 305 305 305 305 304 304 301 301 301 301 300 300 299 298 298 297 297 297 298 296 293 291 289 288 287 288 287 289 290 292 292 292 292 293 293 293 292 291 291 291 290 290 290 289 290 290 290 289 288 288 288 288 288 288 287 287 287 286 286 286 284 284
304 303 303 302 300 299 299 299 299 299 300 301 302 303 305 305 306 307 306 306 306 306 305 305 305 305 305 304 303 301 300 300 301 300 297 296 295 295 295 296 296 295 292 290 289 288 287 287 287 287 288 289 290 290 291 291 291 291 291 290 289 290 289 289 289 288 288 288 287 287 288 287 287 288 287 287 287 287 287 287 286 286 286 286 284
306 305 305 304 302 300 299 298 298 298 299 300 301 302 303 304 305 305 306 307 306 305 304 304 304 304 304 304 303 302 299 298 298 297 295 293 293 293 293 293 294 292 291 289 288 288 287 286 286 286 287 288 289 289 289 289 290 290 288 288 288 288 288 287 286 287 287 288 286 286 286 286 286 286 285 285 285 286 286 286 286 286 285 285 285
306 307 308 304 302 299 298 298 299 299 299 299 300 300 302 303 304 304 304 305 305 305 304 303 303 303 302 302 301 298 297 299 297 295 293 292 292 292 292 293 292 290 289 288 288 287 287 286 286 286 286 287 287 287 287 288 288 287 287 287 286 287 287 287 286 285 286 286 286 285 285 285 285 285 284 285 285 284 284 285 285 285 284 284 283
307 306 305 302 299 298 297 297 297 297 297 297 299 299 300 301 303 303 304 304 304 304 303 302 302 301 300 299 299 297 296 296 295 293 291 291 291 290 291 291 290 288 287 288 288 288 287 287 286 285 286 286 287 287 286 287 287 286 286 287 286 286 286 286 285 284 284 285 285 285 284 284 284 283 283 283 283 282 282 283 283 283 284 284 284
307 304 302 300 299 297 296 295 295 296 297 297 297 298 299 300 301 302 302 303 304 304 303 302 301 300 300 300 296 294 294 294 293 292 291 290 290 289 290 290 288 287 287 287 287 286 286 286 285 285 286 286 286 286 286 286 286 286 285 285 286 286 286 285 284 284 284 285 284 284 283 282 283 282 281 281 281 281 282 282 282 283 282 283 283
300 299 298 298 296 295 295 294 295 296 296 296 297 298 298 299 300 301 301 302 302 303 302 302 301 299 298 296 295 294 293 292 292 292 291 290 290 290 289 288 287 286 285 286 285 286 285 285 284 285 285 286 285 285 285 286 286 286 285 285 285 286 285 285 284 284 284 284 284 282 281 281 282 281 280 280 281 281 281 282 282 282 282 282 282
300 299 300 298 296 295 296 296 296 296 296 296 297 297 297 298 298 299 300 301 301 302 301 301 300 298 296 295 294 292 292 291 291 291 291 290 290 288 287 286 286 285 285 285 285 285 284 284 285 285 285 285 284 284 285 285 285 286 285 285 285 284 284 284 284 284 284 283 283 282 281 281 281 280 280 280 280 280 281 281 281 281 281 281 281
303 303 300 300 300 299 297 296 296 296 296 296 297 296 296 297 297 298 299 299 300 300 299 299 299 298 297 295 294 292 290 290 291 291 290 289 288 287 286 285 286 285 284 285 285 284 283 283 284 285 285 284 284 284 284 284 285 285 285 284 283 283 284 284 284 283 282 282 281 282 281 280 280 280 280 280 280 280 280 280 280 281 281 281 281
301 303 303 300 298 297 297 297 296 296 295 296 296 296 296 296 296 297 298 299 299 298 297 297 297 297 296 295 294 292 290 290 290 290 289 288 287 286 285 285 285 285 284 284 284 283 283 284 284 284 284 284 283 283 284 284 284 284 283 283 283 284 284 283 283 282 281 281 281 281 280 280 280 280 280 280 280 280 280 280 281 281 281 281 280
299 297 297 299 300 301 299 297 295 295 295 295 295 296 296 295 295 296 296 297 298 297 296 296 296 296 296 295 294 293 291 290 290 289 289 288 287 285 284 284 284 284 283 283 283 283 283 283 284 284 284 284 283 284 284 284 283 283 283 283 283 283 282 282 281 281 281 281 281 280 279 279 280 280 281 281 281 281 281 280 281 281 281 280 280
303 300 299 299 300 300 300 298 296 295 294 294 294 294 295 295 295 296 296 296 297 296 295 295 295 294 295 295 294 292 291 290 289 288 287 287 286 285 284 283 283 283 284 283 283 282 282 282 283 283 283 283 283 282 282 282 282 283 283 283 283 283 282 282 281 281 280 279 279 278 279 279 280 281 282 283 282 283 282 281 281 280 280 280 280
303 302 302 301 300 300 300 299 297 296 295 295 294 294 294 294 294 295 295 295 296 295 295 295 295 294 295 294 293 291 290 290 289 287 286 286 285 284 284 283 283 283 283 283 282 282 282 282 282 282 282 281 281 282 283 284 284 283 283 283 283 283 282 282 280 278 278 278 278 278 279 281 281 281 281 282 282 282 283 283 282 281 280 280 280
304 304 304 304 302 301 300 298 298 297 296 296 296 295 294 294 294 294 294 295 295 294 294 295 295 295 295 294 292 291 290 288 288 286 285 285 284 284 284 283 283 283 282 282 282 282 282 282 282 281 281 281 281 282 284 286 286 285 283 283 283 282 281 280 279 278 277 277 278 278 278 280 280 280 280 281 282 283 283 282 283 283 283 281 280
305 305 306 305 304 302 300 299 299 299 298 297 296 295 294 293 294 294 294 294 293 293 293 294 294 294 294 293 291 290 288 288 287 286 285 284 284 284 283 283 283 283 282 282 282 282 282 282 282 282 282 282 282 283 285 286 286 286 285 284 283 282 281 280 280 279 278 277 277 277 278 278 279 280 279 280 281 282 283 283 283 283 282 282 282
306 306 306 307 306 305 304 304 305 302 300 298 297 295 294 294 293 294 294 293 292 292 292 293 293 293 293 292 290 289 288 287 286 286 285 284 284 283 283 282 282 283 283 281 281 282 282 282 282 281 282 282 281 284 285 286 287 286 285 283 283 283 282 281 279 278 278 278 278 278 278 278 278 280 280 280 280 281 282 283 283 283 283 283 283
307 306 307 307 306 305 305 304 303 302 300 299 296 296 296 295 294 293 292 292 291 291 292 291 292 291 291 290 289 288 287 287 286 286 285 284 284 283 283 283 283 283 282 281 282 282 282 282 282 281 281 281 281 284 286 287 287 286 285 284 284 283 282 281 279 279 278 278 278 279 278 278 278 278 279 279 279 280 281 281 282 283 283 283 283
305 305 305 304 304 304 303 300 298 297 297 296 295 294 294 293 292 292 292 291 291 291 290 291 290 290 290 289 288 288 287 286 286 285 284 284 283 283 283 283 283 282 281 281 282 282 282 282 282 282 281 281 280 285 287 287 287 286 286 284 283 282 282 280 279 278 279 279 279 279 279 279 279 278 279 279 279 280 280 280 280 281 282 283 283
305 304 304 304 303 303 302 301 298 296 294 294 294 293 292 291 291 291 290 290 290 290 290 290 289 289 289 289 287 286 286 286 285 284 284 283 283 283 283 283 282 282 282 282 282 283 282 282 282 282 281 281 281 285 287 287 287 287 286 283 282 281 281 280 280 279 279 279 279 279 279 279 279 280 281 282 281 280 280 279 278 278 279 279 280
303 302 303 304 302 300 298 296 294 294 293 293 292 291 291 290 289 289 289 289 288 288 289 289 288 288 288 288 287 286 286 285 285 284 284 283 283 283 283 283 282 282 282 282 282 282 282 282 282 282 281 280 281 285 287 287 287 287 286 283 282 281 281 280 280 280 280 279 279 279 278 278 279 279 281 282 283 282 280 278 277 277 277 277 277
302 301 298 296 294 293 292 293 292 291 291 290 290 289 289 288 288 288 288 287 287 288 288 288 288 288 287 287 287 286 285 285 284 284 284 284 284 284 283 283 282 281 281 281 281 282 282 282 282 282 281 280 280 284 287 287 287 288 286 284 284 283 282 282 281 281 281 280 280 281 280 279 279 279 281 281 282 282 280 279 278 277 276 276 277
299 298 296 294 292 290 290 289 290 289 288 288 289 288 288 287 287 287 287 287 287 288 287 287 287 287 287 287 286 286 285 285 284 284 284 283 283 283 283 283 282 282 281 282 281 281 281 281 281 281 282 280 280 283 287 287 288 288 286 285 285 284 284 283 283 282 282 282 281 281 281 281 280 280 281 281 282 281 280 280 280 278 277 276 278
290 289 290 289 288 287 288 288 288 288 287 287 288 288 287 286 286 287 286 286 287 287 288 288 287 287 286 286 286 285 285 284 284 284 284 284 284 282 282 282 282 282 281 281 281 280 279 280 280 280 280 280 280 282 285 287 287 287 286 285 285 284 283 283 283 283 283 283 283 282 281 282 283 283 282 282 282 282 280 280 280 278 278 277 280
289 288 286 287 287 288 288 288 287 286 286 287 287 286 286 285 286 286 285 286 287 287 287 286 286 286 285 285 285 285 284 284 284 284 284 283 283 282 282 281 281 281 280 280 280 280 279 279 280 280 280 280 280 281 283 286 286 287 287 285 284 284 284 284 284 283 283 283 283 283 282 282 283 283 283 283 283 283 283 281 280 279 279 280 281
286 285 286 286 286 285 285 285 285 286 286 286 286 285 285 285 285 285 285 286 286 286 286 285 284 284 285 285 284 285 284 284 284 284 283 282 282 282 282 282 281 281 280 280 279 279 279 279 279 279 279 279 280 281 281 284 285 286 286 286 284 284 284 284 283 283 283 283 283 282 282 281 282 283 283 283 284 284 284 283 282 284 284 284 282
286 285 285 286 285 285 285 284 284 285 286 286 285 284 284 284 284 284 285 285 285 285 284 284 284 283 283 283 283 283 283 283 283 283 282 282 282 281 282 282 281 280 280 279 279 279 279 278 278 278 278 278 278 280 281 281 284 285 286 286 286 285 285 284 283 282 282 282 282 282 281 281 282 282 282 283 283 283 283 283 284 284 284 284 283
287 286 285 285 285 284 284 284 284 285 285 285 284 283 283 284 283 284 284 284 284 284 284 283 282 282 282 283 283 283 283 283 283 283 282 281 281 281 281 281 281 280 279 279 279 279 278 278 277 277 277 277 278 279 280 281 281 284 284 285 285 285 285 284 284 283 283 282 282 282 282 281 281 281 282 282 282 282 282 283 283 283 283 282 281
285 285 284 284 285 284 283 283 284 284 284 284 284 283 282 282 282 283 283 283 282 282 282 282 281 282 282 282 282 282 282 283 283 283 282 281 281 281 280 281 281 280 279 278 278 278 279 278 278 278 277 277 276 276 277 279 280 281 283 284 284 284 285 285 283 283 283 283 282 281 281 280 280 279 279 279 279 279 279 280 280 280 280 279 279
284 283 283 284 283 283 283 282 283 283 283 283 283 284 282 282 283 283 283 282 281 281 280 280 281 281 281 282 282 282 282 283 283 283 282 282 281 280 280 280 280 280 280 279 279 278 279 279 279 278 276 275 274 275 275 276 278 279 280 281 282 282 282 282 282 281 279 279 279 278 277 277 277 277 277 277 277 277 277 277 277 278 277 278 278
282 282 282 282 283 282 282 282 281 281 282 282 282 283 283 282 282 282 282 282 281 281 280 280 280 281 281 282 282 282 282 282 283 283 282 282 282 281 281 280 281 281 281 281 280 279 279 278 278 278 277 276 274 275 275 275 275 277 278 278 279 280 278 277 279 279 277 277 276 276 276 276 276 276 276 276 276 277 276 277 277 277 277 277 276
283 282 282 283 283 282 281 281 279 279 280 280 280 281 281 282 282 282 282 282 281 281 280 280 280 281 281 281 281 277 280 282 282 282 282 282 282 282 281 281 281 281 280 280 279 278 278 278 278 277 276 276 275 275 276 275 274 275 276 276 276 275 275 276 276 276 276 275 274 274 275 276 275 275 276 276 276 276 276 276 276 276 276 276 276
281 282 283 283 282 281 280 278 277 277 278 277 277 277 280 281 281 281 281 281 281 279 280 279 280 281 281 280 281 281 282 281 280 279 280 281 281 281 281 279 277 280 281 281 279 279 279 279 279 277 276 276 276 275 275 277 275 276 275 274 274 274 275 275 275 276 273 272 274 275 276 276 276 275 275 275 275 275 275 275 274 274 275 275 274
282 282 283 282 281 279 278 276 275 275 275 275 275 274 276 279 281 281 281 280 279 279 279 279 279 280 279 280 280 279 278 278 278 278 277 276 276 279 278 278 277 278 278 279 280 279 278 278 278 277 277 277 277 277 278 277 277 277 277 276 276 277 277 277 277 278 278 276 276 276 275 275 275 274 273 273 273 273 273 273 273 273 272 272 272
281 280 280 279 278 277 275 274 273 273 273 273 273 273 274 275 279 280 280 279 279 279 278 278 278 278 278 278 278 277 277 277 277 278 277 277 277 278 279 279 279 279 279 279 279 278 278 278 277 275 276 278 278 278 278 278 278 278 278 278 278 278 279 278 279 278 277 276 275 274 274 274 274 273 272 271 271 271 270 270 270 270 270 270 269
Wind_Speed
2 1 4 7 8 8 9 9 10 11 11 13 13 13 14 12 12 12 10 11 10 11 11 10 8 7 6 8 8 7 4 4 4 3 4 4 4 6 8 7 10 11 10 10 10 8 7 8 12 11 10 9 10 9 11 12 11 9 9 7 11 10 7 8 8 11 12 9 7 7 6 5 5 4 5 4 4 3 3 3 3 3 4 4 4
4 6 6 6 7 8 8 8 11 13 14 14 15 15 14 13 13 11 10 11 12 12 11 12 10 9 8 9 6 7 5 5 5 3 4 2 3 4 4 4 8 9 9 10 9 9 8 8 8 9 9 8 10 11 10 10 10 8 9 8 5 10 9 10 9 11 8 10 10 8 6 5 4 5 4 4 3 3 2 3 3 3 4 4 4
8 10 8 8 8 8 8 8 10 12 11 13 13 12 13 13 12 12 11 12 12 12 11 10 12 10 9 7 6 4 1 1 2 3 2 3 2 2 3 4 5 7 7 8 8 9 9 8 8 8 9 10 8 7 8 10 11 12 11 11 9 5 7 8 11 5 8 9 8 8 6 5 3 3 3 4 3 2 2 3 3 3 3 3 3
13 11 9 9 9 9 9 9 10 10 9 11 12 14 12 12 13 13 13 12 12 13 12 13 12 8 4 4 4 3 4 3 3 3 2 2 5 2 2 4 6 6 7 7 7 8 9 10 8 9 9 9 9 11 10 8 8 9 8 10 11 11 9 9 5 4 7 11 9 4 6 4 3 6 5 3 2 2 2 3 2 3 3 3 3
12 11 8 8 9 11 11 10 9 10 11 12 13 13 11 15 14 14 11 13 12 12 15 9 7 6 5 5 5 5 4 4 4 3 4 3 3 4 5 3 4 5 6 6 7 9 8 8 10 8 9 8 10 11 12 12 11 13 11 10 12 13 11 9 5 4 8 1 5 7 4 3 4 6 8 4 4 3 2 2 2 2 3 3 3
13 12 9 7 9 8 8 9 10 11 12 13 13 14 13 12 13 13 10 12 13 15 15 10 10 10 9 8 8 7 7 8 9 10 8 7 7 3 1 3 4 4 6 7 6 6 7 9 9 10 10 7 9 10 11 11 13 12 12 11 12 10 12 10 7 5 3 1 3 3 1 1 6 8 8 4 4 1 3 1 2 2 2 3 3
7 9 9 8 8 8 9 11 12 12 12 10 11 12 13 12 13 14 12 11 12 14 12 10 10 10 11 10 9 8 8 6 5 6 7 6 5 5 4 3 4 5 6 7 7 7 7 8 9 9 12 10 10 10 9 12 12 13 11 10 10 9 9 10 11 8 3 2 2 1 2 2 3 11 7 7 5 5 4 3 3 2 2 3 3
6 7 7 8 8 10 11 11 10 11 9 9 10 11 13 13 13 13 11 10 12 14 13 11 11 10 10 10 9 9 10 9 9 8 7 6 6 6 5 4 4 5 6 6 6 8 8 7 8 8 10 11 11 10 12 9 7 5 10 9 9 9 11 9 10 9 11 7 4 3 1 1 5 2 6 6 5 7 6 4 2 2 2 3 3
5 5 5 6 7 8 9 8 9 8 8 10 10 10 11 12 12 13 12 11 12 15 12 12 10 10 10 9 11 9 9 6 7 5 5 5 7 6 6 5 5 5 5 5 6 6 5 6 8 8 10 10 9 10 11 13 15 12 9 7 9 9 9 8 9 10 9 7 7 3 3 4 3 1 2 1 3 6 6 8 6 3 2 3 3
3 5 5 4 4 4 4 4 5 7 7 8 9 10 11 12 14 15 15 12 12 14 13 13 13 10 12 14 14 9 5 4 6 6 6 6 6 6 4 5 5 5 5 5 5 6 6 6 6 7 9 10 9 10 11 12 10 9 10 10 10 9 8 7 9 8 8 6 8 6 6 5 4 3 4 4 1 3 5 9 9 9 7 6 5
0 2 3 4 2 2 2 5 6 6 6 8 9 10 10 11 12 14 14 11 12 14 14 14 13 12 12 10 12 9 7 9 6 7 7 8 7 8 6 7 6 6 5 5 4 5 6 5 5 6 5 8 10 10 8 8 9 9 9 9 9 10 8 8 6 7 7 7 8 7 7 9 7 7 7 7 6 5 4 6 7 9 7 7 7
1 2 2 1 2 3 3 5 6 7 8 9 9 9 11 11 12 14 14 13 12 13 14 14 14 15 15 12 12 10 13 10 10 11 10 9 9 9 7 6 6 4 4 4 4 4 5 5 5 5 6 6 7 7 8 9 9 9 9 8 9 8 6 7 7 7 6 7 7 6 6 6 3 3 4 6 6 4 5 6 7 6 1 5 5
3 3 3 3 3 3 4 5 5 7 8 10 10 10 10 11 13 14 15 14 13 14 14 13 13 15 13 15 13 9 11 10 10 9 9 9 8 7 7 7 5 5 6 6 5 6 5 5 6 6 6 6 7 7 8 9 9 9 9 9 8 9 8 8 7 7 7 7 7 3 2 3 2 1 2 4 2 2 3 5 4 6 6 6 5
5 5 6 7 5 5 5 6 6 6 8 9 10 10 9 9 12 14 15 15 15 15 14 14 13 11 11 12 15 10 10 10 9 9 8 7 7 8 8 8 8 9 9 9 8 8 6 5 6 7 6 7 7 8 8 8 8 8 8 8 8 6 5 6 6 7 5 3 4 4 3 3 2 1 2 3 3 3 4 4 5 3 1 3 3
5 7 7 6 6 6 6 6 6 7 8 9 9 10 10 11 12 15 15 15 16 16 14 17 16 15 11 10 13 8 7 8 8 5 7 8 6 7 8 6 7 8 9 8 10 9 7 6 6 5 5 5 6 6 5 6 7 6 6 6 6 5 6 6 5 7 5 5 5 4 4 3 3 2 2 3 3 3 2 3 5 5 3 3 3
4 6 7 7 6 5 5 6 6 6 9 8 10 10 11 11 12 14 14 15 16 16 16 17 16 15 16 13 11 7 7 7 7 5 7 9 10 9 9 9 7 6 5 7 8 9 9 7 6 6 5 6 6 6 7 7 7 7 6 6 5 3 6 6 6 6 6 6 5 4 5 4 3 3 2 3 2 2 2 3 3 3 3 3 5
4 6 6 5 4 5 6 6 6 7 8 10 11 12 13 12 12 13 14 14 16 17 17 16 16 16 17 12 11 9 10 11 8 8 8 7 7 6 6 7 9 6 6 6 8 8 8 7 7 6 6 6 6 6 7 7 7 7 7 7 7 6 6 7 6 6 6 5 5 5 4 5 4 4 3 3 3 3 2 3 2 2 2 5 3
4 6 6 5 4 5 5 6 7 8 9 9 11 10 10 11 12 14 14 17 16 16 17 16 16 16 13 11 10 8 10 10 9 8 8 7 6 5 5 5 7 7 6 5 6 8 7 9 7 7 6 7 7 7 7 7 8 6 6 7 6 7 7 6 5 6 6 5 6 5 5 5 4 4 4 3 3 3 4 3 3 2 1 3 5
5 7 5 5 5 6 6 7 7 7 8 8 8 9 9 10 11 13 15 15 15 14 15 15 16 14 11 10 11 9 8 9 8 7 7 7 7 6 7 7 5 5 6 6 6 7 8 6 6 7 7 7 7 8 8 7 8 7 7 7 7 7 7 7 6 6 6 6 7 7 5 5 4 5 4 3 3 3 3 3 3 2 2 2 3
6 5 5 4 4 5 7 7 8 9 9 8 9 8 10 11 11 12 12 13 14 16 15 16 16 15 10 8 9 8 8 8 7 8 7 9 10 8 5 6 8 5 5 6 6 8 9 9 7 7 8 8 9 8 8 8 8 7 8 8 7 8 8 8 7 5 4 5 7 7 6 5 5 5 4 4 3 2 2 2 3 2 2 2 2
5 5 5 3 3 3 4 5 5 6 6 7 8 10 10 10 11 12 13 13 14 15 16 14 13 10 8 10 8 8 9 12 9 8 6 9 8 8 6 6 5 6 6 7 7 8 9 8 8 7 9 9 10 9 8 8 8 8 7 8 9 8 9 7 8 7 5 6 6 6 6 6 6 6 5 4 4 3 3 2 2 2 3 3 4
2 4 4 2 2 2 2 2 3 5 7 9 8 8 10 11 11 11 12 12 13 14 13 11 11 8 10 9 13 11 8 8 9 8 7 9 8 6 6 6 8 5 6 8 9 7 8 9 7 7 8 9 10 10 9 9 8 9 8 5 8 9 9 8 8 8 6 5 6 7 6 6 4 4 5 4 4 4 3 3 3 3 3 3 3
5 4 1 1 2 3 3 5 6 8 8 9 9 9 9 10 11 11 12 12 12 11 11 11 12 11 12 10 9 8 8 9 9 8 9 9 8 7 7 9 7 7 7 7 6 6 7 7 7 7 9 9 10 10 9 9 9 9 9 8 7 9 9 9 9 8 8 6 7 6 6 5 4 5 4 4 4 4 3 3 3 3 3 2 3
5 3 2 1 1 2 3 5 7 8 8 9 9 9 9 9 10 10 12 12 12 11 11 12 11 10 11 11 10 9 10 10 10 9 10 9 8 8 8 8 6 5 5 6 6 8 8 7 7 8 9 9 10 9 9 8 9 10 9 10 9 8 8 8 8 8 8 8 8 7 6 6 6 5 4 4 3 3 3 3 3 3 2 3 3
5 5 5 5 6 6 5 6 7 8 7 8 8 9 9 10 10 11 10 11 10 10 10 11 11 13 13 12 12 10 10 11 11 9 10 9 9 8 7 7 7 6 7 7 7 7 7 8 8 10 10 10 10 10 10 9 8 8 10 10 9 7 7 7 8 8 9 8 8 7 8 7 6 5 4 4 4 5 4 3 3 3 3 3 3
6 5 6 9 6 3 4 6 7 7 7 7 8 8 9 9 10 10 10 10 11 9 9 11 12 13 13 14 13 12 12 12 11 10 10 9 9 8 9 8 8 9 8 9 10 8 10 9 9 10 10 10 10 10 10 10 9 8 7 7 7 7 8 8 8 7 7 6 6 7 7 7 6 6 5 4 4 6 4 4 4 4 4 3 4
7 6 4 2 3 6 8 8 7 7 7 7 8 8 8 9 10 10 10 10 11 10 11 12 12 13 12 13 13 12 11 11 10 10 9 9 9 9 10 10 10 10 10 10 10 9 8 9 10 10 10 10 9 8 8 8 9 9 8 9 9 8 8 7 6 7 6 5 5 5 6 6 7 7 8 6 6 5 4 5 5 5 4 4 5
8 7 7 8 7 7 7 7 7 8 7 7 8 7 8 9 10 10 10 10 9 10 11 12 12 13 13 13 13 11 11 11 10 10 9 10 10 9 8 7 8 8 8 9 10 10 8 9 10 10 9 8 9 9 9 9 9 9 8 8 8 8 8 7 7 6 6 6 6 5 5 5 5 5 8 6 6 6 5 6 5 5 5 6 6
12 10 9 8 10 9 8 7 8 7 8 9 8 8 7 7 8 9 10 12 11 10 12 12 12 13 14 11 10 10 10 10 9 9 9 9 9 9 8 7 7 8 7 8 7 6 7 8 8 8 8 7 7 6 6 8 8 8 7 8 8 9 9 9 7 6 5 5 4 3 4 4 5 4 5 4 6 6 5 4 5 6 7 6 5
11 10 10 9 10 8 8 7 8 9 9 8 9 9 9 9 9 10 11 11 11 12 13 13 14 14 12 10 10 8 9 9 10 9 9 9 9 9 9 9 9 8 6 7 8 6 8 9 10 9 7 5 4 4 10 15 13 11 9 7 7 8 9 8 8 7 5 5 4 4 3 4 3 2 4 7 9 8 8 5 5 7 6 6 5
10 10 11 10 9 8 8 9 10 10 10 9 9 8 7 8 9 10 11 11 11 12 12 13 13 11 11 10 10 10 10 11 10 8 8 7 8 7 8 7 8 7 7 8 8 9 9 8 9 8 9 9 8 8 14 13 13 11 9 9 9 8 8 6 6 7 7 6 5 4 3 4 4 5 7 11 12 12 13 13 11 10 8 8 6
12 12 11 10 9 9 10 11 11 10 9 8 8 7 7 9 9 10 9 9 11 11 12 11 10 10 11 9 9 9 10 10 9 8 8 7 5 6 5 6 6 6 6 6 7 8 9 8 7 9 11 9 9 12 15 15 15 16 12 8 7 6 6 7 7 7 5 5 5 4 3 3 4 6 6 6 10 13 14 14 16 16 15 14 13
14 15 15 14 11 9 9 10 9 6 6 8 7 7 8 8 9 9 8 9 11 11 11 11 10 9 9 8 9 9 9 9 7 7 5 6 8 8 9 8 9 6 5 9 7 8 9 10 11 12 11 9 7 12 16 16 16 16 13 9 6 7 7 6 6 7 7 7 6 4 3 3 4 8 6 6 7 8 12 17 17 16 17 18 18
17 16 16 12 7 6 7 7 5 4 4 5 7 7 6 5 6 7 9 9 10 10 10 10 9 9 9 9 8 8 7 8 6 6 6 7 6 8 8 7 6 6 7 8 5 7 8 10 10 9 7 6 6 11 15 15 14 15 14 10 5 6 5 6 7 7 6 7 7 7 5 5 5 6 7 8 8 9 8 9 11 12 12 15 18
19 17 14 11 8 8 8 7 5 4 3 3 4 5 4 5 6 8 8 9 9 9 9 9 9 9 9 9 8 8 7 6 6 7 7 6 6 5 6 6 6 8 9 8 7 8 8 7 5 5 6 4 5 13 15 16 16 16 16 9 4 4 4 4 5 5 6 7 5 5 5 6 5 5 7 9 9 9 8 6 6 7 11 11 11
17 15 11 10 12 12 10 7 1 2 2 3 4 5 6 5 6 7 7 8 8 8 9 9 9 9 9 9 9 6 7 7 7 7 7 7 7 6 8 7 6 5 4 4 4 5 6 6 6 5 6 6 6 15 16 17 17 16 14 5 4 4 4 3 4 5 5 4 4 5 5 6 7 8 9 13 11 8 7 10 12 10 9 9 10
7 9 13 11 7 6 4 2 2 2 3 4 4 5 6 6 6 6 7 7 7 8 8 8 8 8 9 9 9 9 6 7 7 7 7 7 7 7 6 5 6 6 6 6 5 5 5 6 7 7 6 6 4 11 13 14 14 16 11 5 5 4 3 4 3 5 4 5 5 6 6 6 7 8 9 11 12 12 9 11 11 13 11 7 10
9 8 7 4 3 2 2 3 3 3 3 3 5 6 6 6 6 6 7 7 8 8 8 8 8 8 8 9 9 8 7 6 7 8 8 7 7 5 6 6 7 8 7 7 6 5 4 5 6 6 7 8 6 10 15 16 16 16 9 7 5 5 4 4 3 4 4 4 7 10 9 7 8 9 10 12 13 11 10 11 9 13 14 11 10
8 7 6 4 3 3 3 4 4 5 4 5 6 8 7 7 7 7 8 8 8 8 8 9 8 8 8 8 6 6 6 7 7 6 6 8 7 6 6 5 6 6 7 6 6 5 5 3 4 6 7 7 6 9 13 14 15 15 10 5 5 4 4 4 4 3 4 5 5 7 12 11 10 10 13 13 15 13 9 11 8 9 12 15 10
2 1 1 2 3 4 4 4 5 5 5 6 7 7 5 7 7 7 8 8 8 8 8 7 7 8 8 6 6 9 9 10 9 7 6 6 6 7 7 7 6 5 5 5 6 6 8 6 6 6 7 7 8 7 10 16 15 14 12 5 4 4 5 5 4 5 5 5 6 5 8 14 17 17 16 17 17 18 13 9 8 9 10 12 8
3 2 2 2 1 1 2 3 3 5 5 6 6 6 6 5 7 7 6 6 6 6 7 7 7 7 6 6 6 8 9 7 7 7 6 6 6 7 8 8 7 6 7 6 7 7 7 6 5 6 6 6 7 8 8 13 13 14 13 10 5 5 4 4 5 5 6 6 5 5 5 9 14 15 16 17 17 18 18 12 10 10 10 12 12
4 5 5 4 4 4 4 4 4 5 5 6 5 6 7 7 6 5 4 5 6 7 7 7 6 6 6 6 6 5 6 6 7 7 7 6 5 6 6 7 6 7 8 8 7 7 6 5 4 4 6 6 6 9 9 12 14 14 13 14 7 6 5 4 5 6 5 5 5 4 5 6 12 14 14 15 16 17 19 15 16 20 22 22 15
7 5 4 6 6 6 5 6 4 5 5 4 6 8 6 5 5 5 5 6 7 7 6 6 6 6 6 7 7 8 7 5 7 8 10 8 7 7 6 7 8 8 8 8 7 6 6 6 5 3 2 3 3 4 7 6 10 13 14 15 15 9 8 7 6 7 6 5 4 3 4 6 9 10 12 14 15 17 15 13 18 20 20 21 18
4 5 7 6 7 6 7 5 5 5 4 4 7 7 6 6 6 5 6 5 6 6 6 7 6 7 6 6 6 6 7 6 7 7 7 8 7 7 7 7 7 8 8 7 6 6 6 6 5 4 3 3 3 3 6 8 7 13 14 15 14 15 12 7 6 6 5 5 4 3 1 3 7 10 12 13 13 12 9 13 14 15 16 15 9
8 7 7 4 7 9 7 7 4 4 4 4 4 8 8 8 6 7 7 7 7 7 7 7 7 6 6 6 6 6 6 6 6 7 7 7 7 7 6 5 6 6 6 6 5 5 5 5 5 5 4 4 3 3 2 7 10 9 13 13 13 14 14 14 9 7 5 4 2 1 3 4 5 5 5 6 5 6 9 12 14 16 15 8 8
6 6 6 4 6 6 7 7 5 3 3 3 2 6 10 7 7 7 7 8 9 9 8 8 7 7 7 7 8 7 7 7 6 5 6 6 7 5 5 5 5 4 4 5 5 4 4 5 6 5 3 3 3 3 3 2 5 7 8 11 12 11 10 10 6 1 7 8 8 6 4 2 2 2 3 2 3 3 6 8 8 9 5 6 7
6 6 7 7 7 8 7 6 6 3 3 3 4 3 6 6 7 7 7 9 10 10 9 8 8 7 7 7 8 7 7 6 6 6 6 6 6 6 6 6 5 5 5 5 5 5 5 5 4 4 4 4 4 4 4 4 4 4 4 4 4 3 3 5 1 1 2 1 3 2 1 1 2 3 4 5 4 4 3 2 2 2 3 3 4
5 7 6 6 7 7 8 7 5 4 4 4 5 6 6 6 6 7 8 9 9 8 8 8 8 7 7 6 6 9 8 6 6 6 6 5 4 5 6 6 6 6 6 5 5 5 6 6 5 5 5 4 4 3 3 4 3 3 2 2 1 1 1 1 1 1 1 1 2 2 3 2 2 2 2 1 1 1 2 2 2 3 4 4 6
8 7 7 6 7 8 7 6 5 4 4 6 7 6 6 7 6 7 8 10 8 10 8 8 6 7 7 6 6 6 5 6 5 5 4 3 3 4 4 3 4 1 1 4 5 4 3 3 3 4 5 4 4 4 4 4 3 5 3 3 2 2 2 2 3 4 3 3 3 2 1 2 2 2 2 3 3 3 3 3 2 2 3 3 3
4 4 5 7 6 6 8 6 5 4 5 7 7 5 5 5 7 6 8 10 10 8 8 7 6 6 6 6 6 5 5 5 6 6 6 7 10 10 4 3 3 4 6 6 3 1 2 3 3 2 1 1 3 2 7 8 7 7 7 6 5 5 6 4 5 7 4 2 2 2 3 3 2 2 2 2 2 2 2 1 2 2 3 3 3
4 7 7 8 7 7 6 8 4 4 6 7 7 5 4 3 4 6 8 10 10 7 7 6 6 5 6 6 6 6 4 4 5 5 6 7 7 8 12 10 8 8 8 8 7 7 8 6 4 4 5 10 11 11 11 10 9 9 9 7 7 6 7 7 6 4 3 4 4 4 3 2 1 1 1 1 1 1 2 2 3 3 3 3 3
Wind_Direction
146 216 225 204 195 191 190 188 193 192 194 194 193 196 196 193 187 195 190 190 185 187 187 181 181 179 185 196 196 190 186 173 158 159 184 192 203 193 182 172 173 172 169 166 165 158 149 151 163 159 160 159 158 161 157 156 152 147 143 140 136 130 135 148 147 130 124 115 108 105 97 90 86 85 84 78 75 81 87 99 102 100 95 84 76
216 225 198 196 199 187 183 189 189 191 200 194 196 196 193 192 193 190 185 189 192 192 188 191 190 190 186 190 180 182 176 178 170 175 183 174 206 213 193 171 165 170 172 173 153 158 157 154 158 163 163 160 160 159 153 143 140 137 136 128 145 143 149 166 160 138 140 146 143 136 120 108 88 83 78 71 71 74 78 89 101 100 97 98 100
245 235 208 198 188 190 192 196 200 207 197 197 199 193 192 194 195 190 187 187 191 193 191 192 194 192 189 179 167 155 131 32 142 141 130 155 192 211 183 185 164 153 161 169 158 156 161 158 163 167 166 163 147 132 133 144 153 152 160 150 148 157 152 171 174 197 152 151 138 133 152 149 143 115 93 84 82 79 96 98 98 102 96 101 102
246 236 210 191 191 193 196 198 200 197 195 193 196 197 194 196 194 192 190 188 186 192 197 197 194 176 130 117 119 121 160 135 94 95 122 151 191 227 198 189 168 155 165 170 165 161 159 163 164 168 165 155 149 150 155 158 157 162 166 159 149 148 171 185 196 235 167 148 158 187 156 173 163 201 157 116 98 87 103 120 122 119 116 111 110
258 254 210 184 190 203 200 198 187 193 198 196 194 195 196 197 194 191 188 187 188 188 191 174 134 129 120 90 95 102 103 153 136 166 192 182 165 204 194 182 173 159 169 178 163 164 167 157 162 164 161 157 159 159 163 167 167 172 171 163 173 161 167 174 196 223 189 231 143 124 129 214 227 143 143 138 157 145 112 112 108 131 129 115 110
250 256 251 205 203 201 195 191 195 202 204 203 195 196 196 195 191 189 186 188 191 194 189 160 175 163 158 159 168 182 178 179 190 184 179 186 190 154 140 174 182 168 173 179 172 156 163 168 168 160 164 169 171 165 164 161 169 177 185 177 177 180 161 163 174 209 237 165 308 347 8 290 160 150 164 164 159 106 128 120 124 120 123 132 128
229 242 242 232 213 200 200 200 203 205 209 195 193 196 198 194 191 190 189 187 187 194 179 169 177 180 180 185 183 186 180 189 183 174 172 177 156 163 175 173 179 175 174 176 174 163 158 166 170 169 167 175 178 174 167 171 173 180 181 188 180 172 165 166 172 178 179 238 219 313 2 327 139 146 194 126 172 163 181 171 163 149 140 153 155
252 245 239 230 223 209 214 205 202 209 198 190 193 193 196 195 191 190 190 188 188 194 183 184 186 185 184 187 189 192 196 184 175 170 171 158 151 164 169 177 177 182 180 178 165 171 167 164 166 170 171 180 180 179 178 176 168 162 178 185 182 176 178 174 167 169 178 180 165 192 146 112 158 321 170 179 161 164 175 162 151 162 174 182 178
258 250 242 227 221 220 219 209 204 200 192 192 194 193 194 196 194 192 194 189 190 189 178 187 191 188 193 191 196 202 196 171 162 152 148 149 161 171 177 169 178 181 187 181 169 159 162 169 162 169 178 182 188 187 187 178 176 170 181 192 184 183 187 175 165 175 189 172 155 161 156 155 161 22 168 164 164 171 169 176 173 165 221 198 196
250 253 258 246 237 233 225 223 198 195 195 195 193 191 193 194 196 195 197 192 187 177 183 188 193 192 196 200 200 195 164 130 154 157 170 169 173 175 165 168 177 178 183 184 177 149 157 177 168 169 179 182 187 186 179 179 181 182 185 186 184 183 191 179 177 174 184 158 176 156 161 151 164 170 188 180 100 221 186 185 176 174 189 192 183
250 260 250 252 246 249 218 216 209 189 188 194 196 196 194 196 197 199 199 195 189 182 186 191 189 197 202 195 198 186 166 170 153 169 173 177 175 182 177 183 181 182 172 172 182 151 149 166 176 181 178 183 186 182 176 176 178 181 185 186 185 184 184 178 176 170 174 157 173 175 179 177 180 188 185 188 192 175 168 172 170 183 195 168 189
322 296 280 232 226 194 201 211 197 191 185 192 197 196 197 200 200 202 201 197 189 187 187 193 196 202 206 198 196 193 189 187 180 178 179 180 178 175 180 179 179 167 170 158 168 165 148 164 167 181 196 188 194 180 177 182 181 182 185 186 186 187 171 170 180 169 167 162 172 188 189 191 191 194 180 185 193 194 185 170 173 163 183 181 144
269 259 265 255 238 213 203 209 194 193 193 193 193 193 197 203 205 206 205 197 200 195 188 193 195 203 199 203 203 192 191 189 190 180 174 182 181 174 172 179 164 169 183 179 177 174 164 160 171 178 192 203 199 184 181 178 179 180 182 182 179 178 179 176 172 174 170 172 177 175 156 168 176 35 176 176 172 141 185 153 157 173 201 184 166
257 261 260 255 235 224 212 204 199 196 195 192 192 191 195 202 208 212 211 203 209 207 194 195 203 205 204 206 211 203 186 192 198 186 179 182 182 180 179 181 179 187 177 186 172 169 180 175 169 184 194 196 191 189 178 174 175 181 177 180 170 171 162 167 166 152 161 135 136 153 170 169 91 95 131 137 146 167 182 173 148 157 308 192 152
240 256 249 247 241 226 216 208 197 194 190 189 190 193 194 201 207 211 212 208 210 211 205 208 212 212 206 208 212 205 177 188 204 180 161 185 186 185 189 185 186 189 182 176 163 168 159 157 173 176 183 188 188 184 168 169 174 178 173 160 157 158 154 163 151 150 147 147 153 155 141 119 108 103 129 124 135 169 182 158 156 164 196 230 224
238 248 252 239 232 218 213 207 201 192 190 189 192 191 196 201 205 210 210 209 212 210 212 212 213 213 212 205 205 179 185 190 202 182 182 191 190 189 189 193 196 188 184 161 159 158 164 155 164 176 169 181 185 176 167 171 171 170 162 158 148 111 149 152 143 145 141 143 137 119 131 114 108 110 103 106 109 85 111 145 174 205 222 230 207
227 233 241 238 207 215 214 205 199 193 191 195 193 192 194 195 201 205 208 211 212 212 216 216 215 214 211 202 201 184 192 197 199 195 192 191 193 195 190 201 199 196 188 175 154 164 157 152 162 163 163 173 174 171 170 168 164 167 163 153 148 153 151 151 147 147 134 131 124 134 128 126 121 111 106 115 115 127 139 150 168 212 284 284 259
234 243 252 247 234 220 209 211 203 200 197 196 198 194 196 199 200 203 205 209 211 212 214 213 212 214 208 195 198 185 195 199 200 189 187 187 189 183 185 183 194 187 171 162 168 160 148 156 160 164 160 166 170 168 168 162 162 166 152 151 146 148 144 138 139 130 134 131 132 126 126 124 121 128 125 122 138 144 152 164 173 182 215 253 287
241 241 232 220 214 212 209 206 203 204 199 196 195 193 195 201 204 206 207 207 208 211 215 217 217 216 212 196 197 196 200 204 198 183 179 188 185 189 190 195 170 161 156 158 163 162 158 152 150 161 159 164 167 165 164 164 170 157 153 149 147 153 148 141 137 136 135 143 143 136 130 126 131 125 123 126 130 151 158 158 158 173 177 220 254
221 224 217 211 201 205 202 199 197 196 193 193 192 194 202 203 204 208 211 209 208 212 216 217 215 215 205 188 193 193 186 196 194 183 179 191 198 199 180 173 185 162 158 157 173 167 164 163 163 155 160 167 167 163 167 169 169 162 157 152 156 155 144 140 138 134 134 141 138 139 140 139 141 137 138 143 147 140 142 158 168 172 171 198 222
204 196 175 186 214 217 213 211 202 192 192 189 191 198 202 203 208 207 208 208 210 215 216 214 210 209 204 204 191 182 193 210 203 188 173 193 196 196 188 192 152 172 149 159 182 180 166 166 161 159 166 167 167 163 169 167 169 156 156 147 150 154 142 137 135 133 134 138 142 138 138 136 144 148 147 149 143 141 151 160 166 182 191 189 207
207 170 170 156 213 236 233 227 218 198 200 196 193 196 201 204 205 206 208 212 208 210 202 202 204 199 204 202 209 205 190 184 192 185 180 194 195 187 179 166 183 166 157 170 185 181 167 162 159 162 166 166 164 164 166 169 163 155 148 140 150 149 138 132 135 141 143 140 144 142 139 139 147 142 138 142 144 149 160 169 182 199 208 200 209
181 194 184 173 196 203 209 211 222 222 212 195 192 197 204 206 205 205 205 210 206 205 202 201 204 200 206 206 192 186 186 189 186 184 191 191 192 181 171 180 178 172 174 175 168 174 168 160 157 166 170 169 164 162 168 169 163 157 151 152 149 147 143 144 148 148 149 146 145 143 144 145 146 144 142 137 139 150 161 187 194 203 214 213 209
298 315 336 324 264 222 207 213 220 222 219 206 196 190 197 205 207 207 211 207 203 200 199 199 196 193 192 191 195 185 185 189 191 191 192 185 180 183 176 177 164 142 166 178 165 172 170 166 166 171 176 169 165 165 167 171 163 158 149 150 154 152 150 147 145 143 147 155 156 147 153 155 156 148 148 145 153 159 175 194 196 208 214 221 223
230 227 224 212 215 209 205 211 220 221 217 221 203 188 191 203 202 208 212 209 206 201 196 197 197 195 195 196 194 187 187 189 191 189 190 184 181 175 172 171 156 161 172 169 173 174 170 174 179 181 175 171 169 166 168 165 162 159 156 151 153 148 138 138 142 148 156 158 162 165 155 153 155 142 149 161 168 176 188 194 200 199 209 219 213
245 215 201 218 215 200 209 215 221 222 212 216 221 191 191 197 205 202 205 203 205 200 196 197 202 199 199 196 195 191 192 190 190 189 187 183 178 173 173 177 174 175 171 181 177 179 183 178 182 182 176 172 170 170 169 166 162 154 143 133 128 136 143 145 147 149 157 161 157 158 157 151 158 163 164 165 172 185 185 201 205 208 208 211 223
263 247 253 290 257 234 228 220 220 221 213 213 224 200 189 194 201 200 200 203 202 198 194 200 202 201 200 198 195 192 186 188 186 187 182 180 180 176 176 181 178 176 175 178 182 178 185 179 180 179 181 175 167 163 156 151 150 150 143 142 147 146 144 139 142 149 153 154 165 150 150 164 172 167 155 170 172 177 187 206 208 208 211 212 226
252 260 248 241 244 243 228 218 219 224 215 222 232 222 188 191 196 197 196 200 200 196 197 201 199 204 208 202 197 193 186 186 183 181 182 183 181 174 173 164 165 173 172 175 175 177 174 173 178 182 180 167 165 166 162 152 148 150 151 153 148 142 136 135 140 148 157 165 166 158 155 177 185 170 169 163 168 187 192 207 209 200 209 215 225
234 237 236 232 229 229 227 222 226 215 217 218 221 223 203 196 199 195 194 202 199 196 201 202 202 206 208 197 187 188 184 181 175 177 179 180 180 175 171 162 166 174 172 177 175 163 155 170 171 174 169 168 171 166 145 149 149 153 148 145 148 146 148 152 154 153 157 157 146 143 159 185 203 221 216 209 203 198 181 196 204 196 209 215 224
233 238 234 228 228 226 223 224 227 217 212 211 213 215 202 195 201 198 199 199 192 200 201 203 207 208 203 194 187 176 179 178 180 181 177 176 172 167 166 170 176 177 164 165 170 160 173 178 172 168 159 143 158 153 176 174 170 157 154 148 146 155 158 155 152 145 144 153 158 157 176 172 166 211 241 243 237 229 226 220 199 192 199 209 213
236 235 235 230 226 225 223 219 225 217 209 205 211 209 195 198 202 197 198 194 191 200 205 206 209 203 198 191 183 183 180 183 182 173 170 151 163 159 165 169 170 164 159 165 169 171 177 174 165 158 158 175 182 176 175 171 168 156 145 151 157 159 145 132 138 150 158 160 159 169 175 172 185 220 236 240 242 240 236 236 240 228 210 197 197
238 235 230 226 218 212 212 219 222 219 205 204 206 202 190 207 199 200 195 185 191 200 206 210 207 199 198 182 180 174 175 182 174 172 174 173 149 154 153 163 166 166 170 152 170 173 172 163 162 168 182 181 177 177 173 172 167 167 168 154 148 137 142 154 160 169 159 142 153 158 168 148 194 213 223 234 240 243 241 238 235 236 233 226 222
245 249 252 241 225 211 218 225 224 208 201 206 194 189 206 201 193 194 175 181 192 199 203 207 202 197 190 181 181 172 175 174 173 165 153 149 165 165 168 170 180 174 148 176 175 166 167 174 179 181 182 177 173 172 178 171 168 167 159 141 149 148 156 163 164 155 157 166 170 162 161 188 211 218 226 236 240 241 238 239 240 240 240 237 234
249 249 248 250 242 240 239 242 244 230 213 199 190 201 203 183 180 173 180 186 189 197 200 200 195 194 187 181 177 176 179 170 156 150 153 157 163 167 167 166 154 151 169 176 166 173 175 182 180 176 170 165 158 171 175 170 163 159 154 154 156 156 153 148 157 155 153 151 153 160 171 211 208 198 219 226 235 242 244 239 236 236 239 239 235
243 240 233 229 238 249 245 234 229 222 208 186 202 200 193 176 178 180 183 179 185 188 193 194 192 190 183 179 172 172 172 160 157 150 155 160 164 155 146 155 162 169 172 177 167 174 178 175 160 160 153 160 165 171 172 164 162 164 164 154 131 120 125 131 127 128 146 160 167 169 198 221 204 195 211 211 225 234 238 242 243 245 245 245 239
224 229 229 224 228 226 225 232 143 172 194 197 201 173 175 181 167 174 172 176 177 185 189 189 187 181 177 177 167 163 167 162 155 156 157 159 162 161 164 160 153 149 136 136 153 159 160 164 158 152 151 162 167 177 173 170 167 165 151 118 132 141 138 129 140 160 182 169 167 186 199 220 227 228 225 214 220 235 250 253 254 253 252 252 251
227 200 221 222 221 210 200 158 169 190 196 191 167 157 165 150 158 166 157 168 171 183 189 186 184 178 176 174 170 165 158 154 152 152 156 157 154 160 153 147 149 152 150 160 159 152 160 155 156 155 154 158 151 177 170 165 162 156 142 144 140 147 150 154 174 179 186 184 195 195 208 224 234 241 232 227 233 229 245 249 252 257 257 252 257
211 208 225 197 183 164 187 192 199 187 188 158 154 156 150 149 154 153 158 168 175 186 185 178 183 172 171 169 168 160 156 153 152 159 161 165 161 149 149 153 154 161 162 162 149 128 137 153 158 163 167 162 158 173 166 162 161 159 145 143 154 156 157 175 189 191 177 194 214 211 217 228 237 247 238 233 237 234 243 248 243 256 262 259 255
204 197 195 188 181 177 172 170 180 180 169 158 149 145 145 152 152 157 163 167 179 182 174 175 176 166 168 162 156 147 149 150 158 156 155 156 157 151 137 141 149 142 146 141 137 134 137 135 153 153 146 146 147 163 163 159 159 160 151 149 148 156 175 199 193 196 192 214 221 214 220 225 234 241 241 242 240 231 237 244 235 242 248 258 256
79 11 4 73 117 127 150 166 175 164 144 149 144 147 144 143 150 153 164 174 178 174 167 164 157 156 156 150 154 163 162 164 165 156 150 150 132 132 143 148 144 138 130 129 139 142 151 153 151 152 154 152 154 162 164 162 162 165 161 149 149 163 197 190 197 215 226 225 213 222 210 224 236 242 245 245 241 234 235 241 241 243 250 255 272
120 105 100 108 115 129 127 138 123 129 140 142 140 130 141 143 147 156 172 170 158 145 149 150 149 149 149 145 146 158 159 159 153 146 142 128 142 140 145 151 145 136 136 140 149 150 150 149 155 158 152 155 156 156 165 165 168 172 174 166 176 188 196 204 214 220 230 239 237 223 223 216 233 242 245 246 246 244 243 245 246 242 247 269 281
94 115 138 138 121 104 98 95 109 131 136 143 137 132 139 145 152 158 149 130 132 139 139 137 139 139 132 127 134 116 130 128 134 128 121 126 122 127 136 141 139 137 144 146 149 154 144 137 134 118 149 155 157 159 165 176 178 182 186 191 190 201 191 201 226 239 237 244 243 241 242 209 226 241 248 253 256 259 261 260 262 265 271 276 277
147 153 159 150 140 139 136 132 133 139 142 142 135 129 135 140 141 136 130 136 136 134 132 130 124 121 126 132 131 133 128 125 133 140 140 134 144 144 141 138 139 139 136 137 145 137 131 132 125 122 98 102 106 133 159 169 186 192 202 209 213 215 206 214 228 240 234 245 244 235 225 194 232 246 257 263 269 273 274 272 275 280 283 286 288
141 146 157 154 137 134 132 135 136 144 142 143 142 129 138 137 130 133 128 123 122 123 122 115 118 121 119 124 122 121 125 131 135 134 134 137 145 144 145 152 144 142 143 140 143 137 134 135 143 149 158 161 167 164 184 185 190 205 210 215 221 227 227 226 223 239 242 242 248 242 210 194 246 256 266 278 285 288 289 290 294 296 301 303 301
156 155 157 156 145 142 132 128 128 132 141 141 147 131 137 133 135 132 130 124 113 114 114 113 113 117 117 114 114 121 123 122 127 137 137 142 132 134 138 134 137 132 131 136 140 151 154 156 152 160 167 166 164 168 168 200 199 208 216 221 225 227 231 233 239 246 246 255 267 321 343 360 13 13 1 343 328 314 311 309 305 302 300 293 293
115 130 149 140 114 111 118 119 112 103 121 121 141 137 132 135 133 134 127 121 124 122 114 114 116 116 113 117 110 109 113 117 125 130 123 128 130 127 121 127 123 123 130 137 149 155 166 171 178 173 154 154 149 155 181 189 199 204 214 222 222 226 234 241 257 298 53 50 51 48 41 357 321 346 325 297 288 288 299 301 305 308 293 285 285
151 143 135 134 138 128 129 126 117 112 103 106 97 92 107 123 127 128 125 126 127 122 116 120 120 118 118 118 123 130 130 125 122 126 127 132 137 136 135 143 149 152 158 160 156 165 163 166 168 169 159 159 170 180 182 180 190 189 191 191 205 210 73 63 47 292 20 7 61 56 105 132 230 256 256 261 262 281 295 310 331 334 319 309 300
124 139 145 136 139 133 130 125 117 109 100 94 95 94 107 114 116 126 128 125 117 119 120 121 121 122 127 125 117 120 123 128 123 126 133 135 138 140 147 156 167 165 162 161 162 165 171 171 166 157 157 161 174 182 184 178 175 178 169 144 139 135 167 190 168 198 147 136 136 146 178 194 193 222 234 246 293 331 323 315 316 313 301 292 292
149 154 165 152 141 128 125 110 112 103 99 96 84 93 97 115 126 134 131 125 119 120 114 110 117 119 121 122 126 134 130 122 112 88 73 83 134 152 138 103 26 42 151 161 164 163 167 162 147 152 156 168 176 193 203 165 154 161 154 150 158 173 170 182 191 164 128 150 172 188 216 253 276 292 304 308 314 308 313 319 314 306 315 313 317
125 123 117 115 116 118 130 123 123 128 119 109 98 91 86 114 136 139 136 126 126 115 118 123 124 122 121 125 123 116 106 112 115 118 107 79 56 62 61 108 117 81 66 37 58 145 148 138 131 110 96 164 186 149 124 152 158 167 168 169 172 161 164 159 178 196 186 201 240 258 271 276 272 280 274 264 279 299 314 352 338 356 333 328 332
113 112 116 110 114 118 111 102 111 107 92 87 91 65 93 98 134 138 137 135 134 125 121 124 126 134 140 133 125 124 126 114 116 119 115 110 103 77 77 82 92 97 88 98 103 108 109 101 111 120 80 85 96 113 129 141 148 154 161 164 168 177 177 188 197 188 215 214 206 219 224 205 195 191 156 120 344 346 332 331 322 324 314 327 335